Weather History for KTBR - December, 2012

Change the Weather History Date:

Thursday, December 20, 2012

  Actual Average (KSAV) Record (KSAV)
Temperature  
Mean Temperature 55 °F 51 °F  
Max Temperature 77 °F 61 °F 83 °F (1967)
Min Temperature 33 °F 40 °F 18 °F (1981)
Degree Days  
Heating Degree Days 10 15  
Month to date heating degree days 254  
Since 1 July heating degree days 521  
Cooling Degree Days 0 0  
Month to date cooling degree days 3  
Year to date cooling degree days 2452  
Growing Degree Days 5 (Base 50)    
Moisture  
Dew Point 48 °F    
Average Humidity 81    
Maximum Humidity 100    
Minimum Humidity 50    
Precipitation  
Precipitation 0.00 in 0.10 in 2.14 in (1911)
Month to date precipitation 1.84  
Year to date precipitation 46.85  
Sea Level Pressure  
Sea Level Pressure 29.92 in    
Wind  
Wind Speed 6 mph (SSW)    
Max Wind Speed 25 mph    
Max Gust Speed 34 mph    
Visibility 9 miles    
Events Fog , Rain    
T = Trace of Precipitation, MM = Missing Value Source: NWS Daily Summary

Daily Weather History Graph

Daily Weather History Graph

Search for Another Location

Airport or City:

Trip Planner

Search our weather history database for the weather conditions in past years. The results will help you decide how hot, cold, wet, or windy it might be!

Date:

Astronomy

Dec. 20, 2012 Rise Set
Actual Time 7:24 AM EST 5:25 PM EST
Civil Twilight 6:57 AM EST 5:52 PM EST
Nautical Twilight 6:26 AM EST 6:23 PM EST
Astronomical Twilight 5:56 AM EST 6:53 PM EST
Moon 12:26 PM EST (12/20) 12:27 AM EST (12/20)
Length of Visible Light 10h 55m
Length of Day
10h 00m
First Quarter, 55% of the Moon is Illuminated
Dec 20
First Quarter
Dec 28
Full
Jan 4
Last Quarter
Jan 11
New
Jan 18
First Quarter

Hourly Weather History & Observations

Time (EST) Temp. Windchill Dew Point Humidity Pressure Visibility Wind Dir Wind Speed Gust Speed Precip Events Conditions
12:15 AM 41.0 °F - 41.0 °F 100% 30.10 in 10.0 mi Calm Calm - N/A   Clear
12:35 AM 41.0 °F - 41.0 °F 100% 30.10 in 10.0 mi Calm Calm - N/A   Clear
12:55 AM 37.4 °F - 37.4 °F 100% 30.10 in 10.0 mi Calm Calm - N/A   Clear
1:15 AM 39.2 °F - 39.2 °F 100% 30.10 in 10.0 mi Calm Calm - N/A   Clear
1:35 AM 39.2 °F - 39.2 °F 100% 30.10 in 10.0 mi Calm Calm - N/A   Clear
1:55 AM 37.4 °F - 37.4 °F 100% 30.10 in 10.0 mi Calm Calm - N/A   Clear
2:35 AM 37.4 °F - 37.4 °F 100% 30.09 in 10.0 mi Calm Calm - N/A   Clear
2:55 AM 37.4 °F - 37.4 °F 100% 30.09 in 10.0 mi Calm Calm - N/A   Clear
3:15 AM 37.4 °F - 37.4 °F 100% 30.09 in 10.0 mi Calm Calm - N/A   Clear
3:35 AM 35.6 °F - 35.6 °F 100% 30.09 in 10.0 mi Calm Calm - N/A   Clear
3:55 AM 35.6 °F - 35.6 °F 100% 30.09 in 10.0 mi Calm Calm - N/A   Clear
4:15 AM 35.6 °F - 35.6 °F 100% 30.09 in 10.0 mi Calm Calm - N/A   Clear
4:35 AM 35.6 °F - 35.6 °F 100% 30.09 in 10.0 mi Calm Calm - N/A   Clear
4:55 AM 35.6 °F - 35.6 °F 100% 30.08 in 10.0 mi Calm Calm - N/A   Clear
5:15 AM 35.6 °F - 35.6 °F 100% 30.08 in 10.0 mi Calm Calm - N/A   Clear
5:35 AM 35.6 °F - 35.6 °F 100% 30.08 in 10.0 mi Calm Calm - N/A   Clear
5:55 AM 35.6 °F - 35.6 °F 100% 30.08 in 10.0 mi Calm Calm - N/A   Clear
6:15 AM 35.6 °F - 35.6 °F 100% 30.07 in 10.0 mi Calm Calm - N/A   Clear
6:35 AM 33.8 °F - 33.8 °F 100% 30.07 in 10.0 mi Calm Calm - N/A   Clear
6:55 AM 35.6 °F - 35.6 °F 100% 30.08 in 10.0 mi Calm Calm - N/A   Clear
7:15 AM 35.6 °F - 35.6 °F 100% 30.05 in 10.0 mi Calm Calm - N/A   Clear
7:35 AM 37.4 °F - 37.4 °F 100% 30.05 in 10.0 mi Calm Calm - N/A   Scattered Clouds
7:55 AM 37.4 °F - 37.4 °F 100% 30.06 in 5.0 mi Calm Calm - N/A   Overcast
8:15 AM 37.4 °F - 37.4 °F 100% 30.06 in 0.2 mi Calm Calm - N/A Fog Fog
8:35 AM 42.8 °F - 42.8 °F 100% 30.06 in 0.2 mi Calm Calm - N/A Fog Fog
8:55 AM 46.4 °F 44.3 °F 46.4 °F 100% 30.05 in 5.0 mi SSE 4.6 mph - N/A   Scattered Clouds
9:15 AM 48.2 °F - 48.2 °F 100% 30.05 in 10.0 mi SSE 3.5 mph - N/A   Clear
9:35 AM 51.8 °F - 51.8 °F 100% 30.03 in 10.0 mi SE 5.8 mph - N/A   Clear
9:55 AM 57.2 °F - 51.8 °F 82% 30.01 in 10.0 mi SSE 6.9 mph - N/A   Clear
10:15 AM 60.8 °F - 53.6 °F 77% 30.00 in 10.0 mi SSE 10.4 mph 16.1 mph N/A   Clear
10:35 AM 64.4 °F - 55.4 °F 73% 29.99 in 10.0 mi South 13.8 mph - N/A   Clear
10:55 AM 66.2 °F - 55.4 °F 68% 29.99 in 10.0 mi South 11.5 mph 16.1 mph N/A   Clear
11:15 AM 69.8 °F - 55.4 °F 60% 29.97 in 10.0 mi South 12.7 mph 21.9 mph N/A   Clear
11:35 AM 69.8 °F - 57.2 °F 64% 29.95 in 10.0 mi South 16.1 mph 26.5 mph N/A   Clear
11:55 AM 71.6 °F - 57.2 °F 60% 29.96 in 10.0 mi South 17.3 mph 26.5 mph N/A   Scattered Clouds
12:15 PM 71.6 °F - 57.2 °F 60% 29.94 in 10.0 mi South 18.4 mph 25.3 mph N/A   Scattered Clouds
12:35 PM 71.6 °F - 55.4 °F 57% 29.92 in 10.0 mi South 15.0 mph 26.5 mph N/A   Mostly Cloudy
12:55 PM 73.4 °F - 55.4 °F 53% 29.90 in 10.0 mi South 21.9 mph 25.3 mph N/A   Overcast
1:15 PM 73.4 °F - 55.4 °F 53% 29.87 in 10.0 mi South 16.1 mph 24.2 mph N/A   Mostly Cloudy
1:35 PM 77.0 °F - 57.2 °F 50% 29.85 in 10.0 mi South 16.1 mph 24.2 mph N/A   Mostly Cloudy
1:55 PM 77.0 °F - 57.2 °F 50% 29.84 in 10.0 mi South 16.1 mph 24.2 mph N/A   Scattered Clouds
2:15 PM 75.2 °F - 57.2 °F 53% 29.83 in 10.0 mi South 15.0 mph 23.0 mph N/A   Mostly Cloudy
2:35 PM 73.4 °F - 57.2 °F 57% 29.82 in 10.0 mi South 17.3 mph 24.2 mph N/A   Mostly Cloudy
2:55 PM 73.4 °F - 57.2 °F 57% 29.80 in 10.0 mi South 13.8 mph 23.0 mph N/A   Mostly Cloudy
3:15 PM 73.4 °F - 57.2 °F 57% 29.79 in 10.0 mi South 17.3 mph 24.2 mph N/A   Mostly Cloudy
3:35 PM 73.4 °F - 59.0 °F 61% 29.79 in 10.0 mi South 12.7 mph 18.4 mph N/A   Mostly Cloudy
3:55 PM 73.4 °F - 59.0 °F 61% 29.77 in 10.0 mi South 15.0 mph 19.6 mph N/A   Overcast
4:15 PM 73.4 °F - 59.0 °F 61% 29.76 in 10.0 mi South 12.7 mph - N/A   Mostly Cloudy
4:35 PM 71.6 °F - 59.0 °F 64% 29.74 in 10.0 mi South 13.8 mph 20.7 mph N/A   Mostly Cloudy
4:55 PM 71.6 °F - 60.8 °F 69% 29.74 in 10.0 mi South 11.5 mph - N/A   Overcast
5:15 PM 71.6 °F - 60.8 °F 69% 29.74 in 10.0 mi South 10.4 mph - N/A   Light Drizzle
5:35 PM 69.8 °F - 62.6 °F 78% 29.74 in 2.5 mi South 9.2 mph - N/A Rain Rain
5:55 PM 66.2 °F - 66.2 °F 100% 29.72 in 7.0 mi SSE 8.1 mph - N/A Rain Rain
6:15 PM 66.2 °F - 66.2 °F 100% 29.70 in 5.0 mi SSE 10.4 mph - N/A Rain Heavy Rain
6:35 PM 66.2 °F - 66.2 °F 100% 29.72 in 4.0 mi South 11.5 mph 17.3 mph N/A Rain Heavy Rain
6:55 PM 66.2 °F - 66.2 °F 100% 29.72 in 7.0 mi SSW 8.1 mph - N/A Rain Rain
7:15 PM 66.2 °F - 66.2 °F 100% 29.71 in 10.0 mi South 11.5 mph 16.1 mph N/A Rain Light Rain
7:35 PM 68.0 °F - 68.0 °F 100% 29.69 in 10.0 mi South 11.5 mph 18.4 mph N/A Rain Light Rain
7:55 PM 66.2 °F - 64.4 °F 94% 29.73 in 5.0 mi West 19.6 mph 32.2 mph N/A Rain Light Rain
8:15 PM 64.4 °F - 59.0 °F 83% 29.74 in 10.0 mi West 11.5 mph 20.7 mph N/A   Overcast
8:35 PM 64.4 °F - 55.4 °F 73% 29.76 in 10.0 mi West 23.0 mph 34.5 mph N/A   Overcast
8:55 PM 59.0 °F - 42.8 °F 55% 29.78 in 10.0 mi WNW 25.3 mph 33.4 mph N/A   Mostly Cloudy
9:15 PM 59.0 °F - 42.8 °F 55% 29.79 in 10.0 mi WNW 15.0 mph 27.6 mph N/A   Overcast
9:35 PM 59.0 °F - 42.8 °F 55% 29.80 in 10.0 mi WNW 13.8 mph 23.0 mph N/A   Overcast
9:55 PM 59.0 °F - 42.8 °F 55% 29.81 in 10.0 mi WNW 13.8 mph 20.7 mph N/A   Overcast
10:15 PM 57.2 °F - 42.8 °F 59% 29.81 in 10.0 mi WNW 16.1 mph 21.9 mph N/A   Overcast
10:35 PM 55.4 °F - 42.8 °F 63% 29.82 in 10.0 mi WNW 19.6 mph 32.2 mph N/A   Scattered Clouds
10:55 PM 55.4 °F - 42.8 °F 63% 29.83 in 10.0 mi WNW 16.1 mph 26.5 mph N/A   Clear
11:15 PM 55.4 °F - 42.8 °F 63% 29.84 in 10.0 mi NW 21.9 mph 32.2 mph N/A   Scattered Clouds
11:35 PM 53.6 °F - 37.4 °F 54% 29.86 in 10.0 mi WNW 19.6 mph 29.9 mph N/A   Scattered Clouds
11:55 PM 51.8 °F - 35.6 °F 54% 29.87 in 10.0 mi WNW 17.3 mph 25.3 mph N/A   Clear